Weather History for Melfa, VA

Change the Weather History Date:

Thursday, September 26, 2013

  Actual Average (KWAL) Record (KWAL)
Temperature  
Mean Temperature 69 °F 66 °F  
Max Temperature 78 °F 75 °F 89 °F (1986)
Min Temperature 60 °F 58 °F 45 °F (1987)
Degree Days  
Heating Degree Days 0    
Month to date heating degree days  
Since 1 July heating degree days  
Cooling Degree Days 4    
Month to date cooling degree days  
Year to date cooling degree days  
Growing Degree Days 19 (Base 50)    
Moisture  
Dew Point 55 °F    
Average Humidity 66    
Maximum Humidity 82    
Minimum Humidity 41    
Precipitation  
Precipitation 0.00 in 0.13 in 0.43 in (2000)
Month to date precipitation 3.50  
Year to date precipitation 30.89  
Sea Level Pressure  
Sea Level Pressure 29.97 in    
Wind  
Wind Speed 5 mph (NE)    
Max Wind Speed 13 mph    
Max Gust Speed 16 mph    
Visibility 10 miles    
Events      
T = Trace of Precipitation, MM = Missing Value Source: NWS Daily Summary

Daily Weather History Graph

Daily Weather History Graph

Search for Another Location

Airport:

Trip Planner

Search our weather history database for the weather conditions in past years. The results will help you decide how hot, cold, wet, or windy it might be!

Date:

Astronomy

Sep. 26, 2013 Rise Set
Actual Time 6:54 AM EDT 6:53 PM EDT
Civil Twilight 6:28 AM EDT 7:19 PM EDT
Nautical Twilight 5:57 AM EDT 7:49 PM EDT
Astronomical Twilight 5:27 AM EDT 8:20 PM EDT
Moon 11:55 PM EDT (9/26) 1:39 PM EDT (9/26)
Length of Visible Light 12h 51m
Length of Day
11h 59m
Waning Gibbous, 55% of the Moon is Illuminated
Sep 26
Waning Gibbous
Sep 26
Last Quarter
Oct 4
New
Oct 11
First Quarter
Oct 18
Full

Hourly Weather History & Observations

Time (EDT) Temp. Dew Point Humidity Pressure Visibility Wind Dir Wind Speed Gust Speed Precip Events Conditions
12:16 AM 62.6 °F 55.4 °F 77% 29.92 in 10.0 mi East 4.6 mph - N/A   Clear
12:35 AM 62.6 °F 55.4 °F 77% 29.92 in 10.0 mi East 3.5 mph - N/A   Clear
12:56 AM 62.6 °F 55.4 °F 77% 29.92 in 10.0 mi East 3.5 mph - N/A   Clear
1:15 AM 62.6 °F 55.4 °F 77% 29.92 in 10.0 mi Calm Calm - N/A   Clear
1:36 AM 60.8 °F 55.4 °F 82% 29.92 in 10.0 mi Calm Calm - N/A   Clear
1:56 AM 60.8 °F 55.4 °F 82% 29.92 in 10.0 mi Calm Calm - N/A   Clear
2:15 AM 60.8 °F 55.4 °F 82% 29.91 in 10.0 mi Calm Calm - N/A   Clear
2:36 AM 60.8 °F 55.4 °F 82% 29.91 in 10.0 mi NNE 3.5 mph - N/A   Clear
2:55 AM 60.8 °F 55.4 °F 82% 29.91 in 10.0 mi NNE 3.5 mph - N/A   Clear
3:16 AM 60.8 °F 55.4 °F 82% 29.91 in 10.0 mi Calm Calm - N/A   Clear
3:35 AM 60.8 °F 55.4 °F 82% 29.91 in 10.0 mi NE 3.5 mph - N/A   Clear
3:56 AM 60.8 °F 55.4 °F 82% 29.91 in 10.0 mi NE 4.6 mph - N/A   Clear
4:18 AM 62.6 °F 55.4 °F 77% 29.91 in 10.0 mi NNE 3.5 mph - N/A   Clear
4:35 AM 60.8 °F 55.4 °F 82% 29.91 in 10.0 mi NNE 3.5 mph - N/A   Clear
4:56 AM 62.6 °F 55.4 °F 77% 29.90 in 10.0 mi NE 4.6 mph - N/A   Clear
5:15 AM 62.6 °F 55.4 °F 77% 29.90 in 10.0 mi NNE 3.5 mph - N/A   Clear
5:36 AM 62.6 °F 55.4 °F 77% 29.91 in 10.0 mi NNE 3.5 mph - N/A   Clear
5:57 AM 60.8 °F 55.4 °F 82% 29.91 in 10.0 mi NE 4.6 mph - N/A   Clear
6:15 AM 60.8 °F 55.4 °F 82% 29.92 in 10.0 mi Calm Calm - N/A   Clear
6:35 AM 60.8 °F 53.6 °F 77% 29.92 in 10.0 mi Calm Calm - N/A   Clear
6:55 AM 60.8 °F 55.4 °F 82% 29.93 in 10.0 mi Calm Calm - N/A   Clear
7:15 AM 60.8 °F 55.4 °F 82% 29.93 in 10.0 mi NNE 3.5 mph - N/A   Clear
7:35 AM 62.6 °F 55.4 °F 77% 29.94 in 10.0 mi NNE 3.5 mph - N/A   Clear
7:55 AM 62.6 °F 55.4 °F 77% 29.95 in 10.0 mi NNE 4.6 mph - N/A   Clear
8:17 AM 64.4 °F 55.4 °F 73% 29.95 in 10.0 mi North 4.6 mph - N/A   Clear
8:35 AM 66.2 °F 57.2 °F 73% 29.95 in 10.0 mi NE 5.8 mph - N/A   Clear
8:57 AM 71.6 °F 57.2 °F 60% 29.96 in 10.0 mi NE 8.1 mph - N/A   Clear
9:18 AM 71.6 °F 55.4 °F 57% 29.96 in 10.0 mi NE 6.9 mph - N/A   Clear
9:35 AM 73.4 °F 55.4 °F 53% 29.96 in 10.0 mi NE 11.5 mph 16.1 mph N/A   Clear
9:55 AM 73.4 °F 55.4 °F 53% 29.97 in 10.0 mi NNE 6.9 mph - N/A   Clear
10:15 AM 73.4 °F 55.4 °F 53% 29.97 in 10.0 mi NE 8.1 mph - N/A   Clear
10:37 AM 75.2 °F 55.4 °F 50% 29.97 in 10.0 mi ENE 11.5 mph - N/A   Scattered Clouds
10:55 AM 75.2 °F 53.6 °F 47% 29.97 in 10.0 mi NE 8.1 mph - N/A   Scattered Clouds
11:16 AM 75.2 °F 53.6 °F 47% 29.98 in 10.0 mi ENE 9.2 mph - N/A   Scattered Clouds
11:55 AM 77.0 °F 53.6 °F 44% 29.98 in 10.0 mi ENE 10.4 mph - N/A   Mostly Cloudy
12:15 PM 78.8 °F 53.6 °F 42% 29.98 in 10.0 mi ENE 8.1 mph - N/A   Mostly Cloudy
12:36 PM 78.8 °F 53.6 °F 42% 29.98 in 10.0 mi ENE 10.4 mph - N/A   Scattered Clouds
1:15 PM 77.0 °F 55.4 °F 47% 29.98 in 10.0 mi East 12.7 mph 16.1 mph N/A   Mostly Cloudy
1:37 PM 78.8 °F 55.4 °F 44% 29.97 in 10.0 mi East 10.4 mph - N/A   Overcast
1:56 PM 78.8 °F 53.6 °F 42% 29.97 in 10.0 mi East 8.1 mph - N/A   Mostly Cloudy
2:15 PM 77.0 °F 55.4 °F 47% 29.97 in 10.0 mi East 6.9 mph - N/A   Mostly Cloudy
2:35 PM 78.8 °F 55.4 °F 44% 29.97 in 10.0 mi ENE 10.4 mph - N/A   Scattered Clouds
2:55 PM 77.0 °F 55.4 °F 47% 29.97 in 10.0 mi East 11.5 mph - N/A   Scattered Clouds
3:15 PM 77.0 °F 53.6 °F 44% 29.97 in 10.0 mi East 10.4 mph 16.1 mph N/A   Scattered Clouds
3:35 PM 77.0 °F 53.6 °F 44% 29.97 in 10.0 mi East 6.9 mph - N/A   Clear
4:15 PM 75.2 °F 51.8 °F 44% 29.98 in 10.0 mi ENE 10.4 mph - N/A   Scattered Clouds
4:35 PM 77.0 °F 51.8 °F 41% 29.98 in 10.0 mi ENE 11.5 mph 16.1 mph N/A   Scattered Clouds
4:55 PM 75.2 °F 51.8 °F 44% 29.98 in 10.0 mi East 10.4 mph 16.1 mph N/A   Scattered Clouds
5:15 PM 73.4 °F 51.8 °F 47% 29.99 in 10.0 mi ENE 10.4 mph - N/A   Scattered Clouds
5:36 PM 73.4 °F 53.6 °F 50% 30.00 in 10.0 mi ENE 10.4 mph - N/A   Clear
5:55 PM 73.4 °F 53.6 °F 50% 30.00 in 10.0 mi ENE 8.1 mph - N/A   Clear
6:15 PM 73.4 °F 55.4 °F 53% 30.00 in 10.0 mi East 10.4 mph - N/A   Clear
6:35 PM 71.6 °F 55.4 °F 57% 30.01 in 10.0 mi ENE 10.4 mph - N/A   Clear
6:55 PM 71.6 °F 55.4 °F 57% 30.02 in 10.0 mi ENE 10.4 mph 16.1 mph N/A   Clear
7:15 PM 69.8 °F 55.4 °F 60% 30.02 in 10.0 mi ENE 6.9 mph - N/A   Clear
7:35 PM 69.8 °F 57.2 °F 64% 30.02 in 10.0 mi ENE 5.8 mph - N/A   Clear
7:55 PM 68.0 °F 57.2 °F 68% 30.03 in 10.0 mi ENE 4.6 mph - N/A   Clear
8:15 PM 66.2 °F 57.2 °F 73% 30.03 in 10.0 mi NE 4.6 mph - N/A   Clear
8:35 PM 66.2 °F 57.2 °F 73% 30.03 in 10.0 mi NE 3.5 mph - N/A   Clear
9:15 PM 64.4 °F 55.4 °F 73% 30.05 in 10.0 mi NE 3.5 mph - N/A   Clear
9:35 PM 62.6 °F 55.4 °F 77% 30.05 in 10.0 mi NE 3.5 mph - N/A   Clear
9:55 PM 62.6 °F 55.4 °F 77% 30.05 in 10.0 mi NE 3.5 mph - N/A   Clear
10:15 PM 62.6 °F 57.2 °F 82% 30.06 in 10.0 mi Calm Calm - N/A   Clear
10:35 PM 62.6 °F 57.2 °F 82% 30.06 in 10.0 mi Calm Calm - N/A   Clear
10:55 PM 60.8 °F 55.4 °F 82% 30.06 in 0.5 mi Calm Calm - N/A   Haze
11:15 PM 60.8 °F 55.4 °F 82% 30.06 in 0.5 mi NE 3.5 mph - N/A   Haze
11:35 PM 60.8 °F 55.4 °F 82% 30.06 in 10.0 mi Calm Calm - N/A   Scattered Clouds
11:55 PM 60.8 °F 55.4 °F 82% 30.06 in 10.0 mi ENE 3.5 mph - N/A   Clear